ON7SD-5 Weather Reports


time (UTC)temp
C
wind
direction
speed
KPH
gust
KPH
rain 1hr
cm
rain 24hr
cm
rain mn
cm
humidity
%
barometer
mb
20260510064156 13 75 4.8 12.9 0.00 0.00 0.00 74 1013.6
20260510063656 13 78 4.8 17.7 0.00 0.00 0.00 76 1013.7
20260510063156 13 83 4.8 16.1 0.00 0.00 0.00 77 1013.7
20260510062656 13 80 4.8 12.9 0.00 0.00 0.00 78 1013.8
20260510062156 12 83 4.8 16.1 0.00 0.00 0.00 77 1013.7
20260510061656 12 79 1.6 11.3 0.00 0.00 0.00 78 1013.8
20260510061157 12 80 1.6 6.4 0.00 0.00 0.00 80 1013.8
20260510060656 12 80 3.2 17.7 0.00 0.00 0.00 80 1013.8
20260510060157 12 79 3.2 11.3 0.00 0.00 0.00 80 1013.8
20260510055656 12 82 1.6 12.9 0.00 0.00 0.00 81 1013.8
20260510055156 11 77 1.6 12.9 0.00 0.00 0.00 82 1013.8
20260510054657 11 75 1.6 9.7 0.00 0.00 0.00 82 1013.8
20260510054156 11 75 3.2 12.9 0.00 0.00 0.00 83 1013.7
20260510053657 11 71 3.2 12.9 0.00 0.00 0.00 83 1013.8
20260510053157 11 70 3.2 11.3 0.00 0.00 0.00 83 1013.8
20260510052657 11 71 1.6 11.3 0.00 0.00 0.00 84 1013.8
20260510052157 11 72 1.6 12.9 0.00 0.00 0.00 84 1013.8
20260510051657 11 69 1.6 11.3 0.00 0.00 0.00 85 1013.8
20260510051157 11 68 0.0 8.0 0.00 0.00 0.00 85 1013.9
20260510050657 11 68 1.6 8.0 0.00 0.00 0.00 86 1013.9
20260510050157 11 68 1.6 16.1 0.00 0.00 0.00 86 1013.8
20260510045657 11 55 1.6 0.0 0.00 0.00 0.00 86 1013.8
20260510045157 11 54 1.6 9.7 0.00 0.00 0.00 86 1013.8
20260510044657 11 54 1.6 12.9 0.00 0.00 0.00 86 1013.8
20260510044157 11 53 0.0 8.0 0.00 0.00 0.00 86 1013.8
20260510043657 11 53 0.0 4.8 0.00 0.00 0.00 87 1013.8
20260510043157 11 53 1.6 3.2 0.00 0.00 0.00 86 1013.7
20260510042657 11 53 1.6 12.9 0.00 0.00 0.00 87 1013.7
20260510042157 11 50 0.0 6.4 0.00 0.00 0.00 86 1013.7
20260510041657 11 49 0.0 8.0 0.00 0.00 0.00 86 1013.6
20260510041157 11 49 1.6 6.4 0.00 0.00 0.00 86 1013.6
20260510040657 11 49 1.6 9.7 0.00 0.00 0.00 86 1013.6
20260510040157 11 49 1.6 8.0 0.00 0.00 0.00 86 1013.6
20260510035657 11 49 1.6 8.0 0.00 0.00 0.00 86 1013.6
20260510035157 11 49 0.0 0.0 0.00 0.00 0.00 86 1013.6
20260510034657 11 49 0.0 6.4 0.00 0.00 0.00 85 1013.6
20260510034157 11 49 0.0 4.8 0.00 0.00 0.00 85 1013.6
20260510033657 11 49 0.0 3.2 0.00 0.00 0.00 85 1013.6
20260510033157 11 49 0.0 3.2 0.00 0.00 0.00 84 1013.7
20260510032657 11 49 0.0 0.0 0.00 0.00 0.00 84 1013.7
20260510032157 11 49 0.0 4.8 0.00 0.00 0.00 84 1013.8
20260510031657 11 49 0.0 0.0 0.00 0.00 0.00 83 1013.8
20260510031157 11 49 1.6 0.0 0.00 0.00 0.00 83 1013.7
20260510030657 11 49 1.6 8.0 0.00 0.00 0.00 83 1013.8
20260510030157 11 49 1.6 8.0 0.00 0.00 0.00 83 1013.8
20260510025657 11 49 0.0 6.4 0.00 0.00 0.00 82 1013.7
20260510025157 11 49 0.0 3.2 0.00 0.00 0.00 82 1013.8
20260510024657 11 49 0.0 0.0 0.00 0.00 0.00 82 1013.8
20260510024157 11 49 0.0 0.0 0.00 0.00 0.00 82 1013.9
20260510023657 11 49 0.0 4.8 0.00 0.00 0.00 81 1013.9
20260510023157 11 49 0.0 0.0 0.00 0.00 0.00 81 1013.9
20260510022657 11 49 0.0 4.8 0.00 0.00 0.00 81 1013.9
20260510022157 11 49 1.6 4.8 0.00 0.00 0.00 81 1013.9
20260510021657 11 49 1.6 8.0 0.00 0.00 0.00 81 1013.9
20260510021157 11 48 0.0 8.0 0.00 0.00 0.00 81 1013.9
20260510020657 11 48 0.0 4.8 0.00 0.00 0.00 81 1014.0
20260510020157 11 48 0.0 4.8 0.00 0.00 0.00 80 1014.0
20260510015657 11 48 0.0 4.8 0.00 0.00 0.00 81 1013.9
20260510015157 11 48 0.0 4.8 0.00 0.00 0.00 80 1014.0
20260510014657 11 48 0.0 4.8 0.00 0.00 0.00 80 1014.0
20260510014157 11 47 0.0 8.0 0.00 0.00 0.00 80 1014.0
20260510013657 11 47 0.0 4.8 0.00 0.00 0.00 79 1014.1
20260510013157 11 47 0.0 3.2 0.00 0.00 0.00 79 1014.1
20260510012657 11 47 0.0 0.0 0.00 0.00 0.00 78 1014.2
20260510012157 11 47 0.0 4.8 0.00 0.00 0.00 78 1014.3
20260510011657 11 47 0.0 6.4 0.00 0.00 0.00 78 1014.2
20260510011157 11 47 0.0 9.7 0.00 0.00 0.00 78 1014.3
20260510010657 11 47 0.0 3.2 0.00 0.00 0.00 77 1014.3
20260510010157 11 47 0.0 4.8 0.00 0.00 0.00 77 1014.4
20260510005657 11 47 0.0 4.8 0.00 0.00 0.00 77 1014.4
20260510005157 11 47 0.0 4.8 0.00 0.00 0.00 77 1014.4
20260510004657 11 47 0.0 6.4 0.00 0.00 0.00 77 1014.3
20260510004157 11 47 0.0 4.8 0.00 0.00 0.00 76 1014.4
20260510003657 12 47 1.6 4.8 0.00 0.00 0.00 76 1014.4
20260510003157 12 47 0.0 6.4 0.00 0.00 0.00 75 1014.4
20260510002657 12 47 0.0 0.0 0.00 0.00 0.00 75 1014.4
20260510002157 12 47 0.0 0.0 0.00 0.00 0.00 75 1014.4
20260510001657 12 47 0.0 1.6 0.00 0.00 0.00 74 1014.5
20260510001157 12 47 0.0 6.4 0.00 0.00 0.00 74 1014.6
20260510000657 12 47 0.0 1.6 0.00 0.00 0.00 74 1014.7
20260510000157 12 47 0.0 4.8 0.00 0.00 0.00 73 1014.8
20260509235657 12 47 0.0 1.6 0.00 0.00 0.00 73 1014.9
20260509235157 12 47 1.6 1.6 0.00 0.00 0.00 72 1014.8
20260509234657 12 47 1.6 6.4 0.00 0.00 0.00 72 1014.9
20260509234157 12 47 0.0 8.0 0.00 0.00 0.00 72 1014.8
20260509233657 12 47 0.0 6.4 0.00 0.00 0.00 72 1014.8
20260509233157 12 47 1.6 1.6 0.00 0.00 0.00 71 1014.8
20260509232657 12 47 1.6 6.4 0.00 0.00 0.00 71 1014.8
20260509232157 12 47 1.6 8.0 0.00 0.00 0.00 70 1014.8
20260509231657 12 47 1.6 8.0 0.00 0.00 0.00 70 1014.9
20260509231157 12 46 1.6 9.7 0.00 0.00 0.00 69 1014.9
20260509230657 12 46 1.6 8.0 0.00 0.00 0.00 68 1014.9
20260509230157 12 45 1.6 8.0 0.00 0.00 0.00 67 1015.0
20260509225657 13 45 1.6 8.0 0.00 0.00 0.00 67 1015.0
20260509225157 13 44 1.6 4.8 0.00 0.00 0.00 66 1015.0
20260509224657 13 44 1.6 9.7 0.00 0.00 0.00 66 1015.0
20260509224157 13 45 1.6 9.7 0.00 0.00 0.00 65 1014.9
20260509223657 13 44 1.6 8.0 0.00 0.00 0.00 64 1014.9
20260509223157 13 44 1.6 8.0 0.00 0.00 0.00 64 1014.9
20260509222657 13 43 1.6 3.2 0.00 0.00 0.00 64 1015.0
20260509222157 13 43 1.6 8.0 0.00 0.00 0.00 63 1014.9
20260509221657 13 42 1.6 11.3 0.00 0.00 0.00 63 1014.9
20260509221157 13 44 1.6 8.0 0.00 0.00 0.00 63 1014.9
20260509220657 13 44 1.6 8.0 0.00 0.00 0.00 63 1014.8
20260509220157 13 44 1.6 8.0 0.00 0.00 0.00 63 1014.8
20260509215657 13 44 1.6 9.7 0.00 0.00 0.00 63 1014.8
20260509215157 13 44 1.6 6.4 0.00 0.00 0.00 63 1014.8
20260509214657 13 44 1.6 9.7 0.00 0.00 0.00 63 1014.8
20260509214157 13 43 0.0 6.4 0.00 0.00 0.00 64 1014.8
20260509213657 14 43 0.0 4.8 0.00 0.00 0.00 64 1014.8
20260509213157 14 42 0.0 8.0 0.00 0.00 0.00 64 1014.9
20260509212657 14 43 1.6 6.4 0.00 0.00 0.00 64 1015.0
20260509212157 14 41 1.6 6.4 0.00 0.00 0.00 63 1015.0
20260509211657 14 41 0.0 4.8 0.00 0.00 0.00 63 1014.9
20260509211157 14 41 1.6 4.8 0.00 0.00 0.00 63 1014.8
20260509210657 15 41 3.2 8.0 0.00 0.00 0.00 63 1014.8
20260509210157 15 37 3.2 12.9 0.00 0.00 0.00 63 1014.7
20260509205657 15 64 1.6 8.0 0.00 0.00 0.00 63 1014.7
20260509205157 15 65 1.6 8.0 0.00 0.00 0.00 63 1014.6
20260509204657 15 75 1.6 8.0 0.00 0.00 0.00 63 1014.6
20260509204157 15 75 1.6 11.3 0.00 0.00 0.00 62 1014.6
20260509203658 15 75 1.6 8.0 0.00 0.00 0.00 62 1014.6
20260509203157 15 76 1.6 8.0 0.00 0.00 0.00 62 1014.6
20260509202657 15 76 1.6 6.4 0.00 0.00 0.00 62 1014.6
20260509202157 15 76 1.6 8.0 0.00 0.00 0.00 62 1014.6
20260509201657 15 77 3.2 6.4 0.00 0.00 0.00 61 1014.6
20260509201157 15 77 3.2 9.7 0.00 0.00 0.00 61 1014.7
20260509200657 16 77 3.2 11.3 0.00 0.00 0.00 60 1014.7
20260509200157 16 77 3.2 11.3 0.00 0.00 0.00 60 1014.6
20260509195657 16 86 1.6 14.5 0.00 0.00 0.00 60 1014.5
20260509195157 16 70 1.6 9.7 0.00 0.00 0.00 60 1014.5
20260509194657 16 68 1.6 14.5 0.00 0.00 0.00 60 1014.6
20260509194157 16 64 1.6 9.7 0.00 0.00 0.00 59 1014.5
20260509193657 16 46 1.6 11.3 0.00 0.00 0.00 59 1014.4
20260509193157 16 75 1.6 9.7 0.00 0.00 0.00 58 1014.4
20260509192657 16 71 1.6 8.0 0.00 0.00 0.00 58 1014.4
20260509192157 17 72 1.6 11.3 0.00 0.00 0.00 58 1014.2
20260509191657 17 77 3.2 8.0 0.00 0.00 0.00 57 1014.2
20260509191157 17 77 3.2 14.5 0.00 0.00 0.00 57 1014.2
20260509190657 17 1 1.6 12.9 0.00 0.00 0.00 56 1014.2
20260509190157 17 28 1.6 12.9 0.00 0.00 0.00 56 1014.1
20260509185657 18 63 3.2 11.3 0.00 0.00 0.00 56 1014.2
20260509185157 18 65 3.2 14.5 0.00 0.00 0.00 55 1014.2
20260509184657 18 65 1.6 8.0 0.00 0.00 0.00 54 1014.3
20260509184157 18 46 1.6 11.3 0.00 0.00 0.00 53 1014.3
20260509183657 18 72 3.2 14.5 0.00 0.00 0.00 52 1014.3
20260509183157 19 59 3.2 9.7 0.00 0.00 0.00 51 1014.3
20260509182657 19 76 3.2 11.3 0.00 0.00 0.00 50 1014.2
20260509182158 20 72 3.2 14.5 0.00 0.00 0.00 49 1014.0
20260509181657 20 94 3.2 20.9 0.00 0.00 0.00 48 1014.0
20260509181157 20 46 3.2 11.3 0.00 0.00 0.00 47 1014.1
20260509180657 20 34 3.2 12.9 0.00 0.00 0.00 47 1014.0
20260509180158 20 53 4.8 12.9 0.00 0.00 0.00 46 1014.0
20260509175657 20 19 6.4 14.5 0.00 0.00 0.00 46 1014.0
20260509175158 21 25 3.2 16.1 0.00 0.00 0.00 45 1014.0
20260509174658 21 56 3.2 9.7 0.00 0.00 0.00 45 1014.0
20260509174158 21 72 4.8 9.7 0.00 0.00 0.00 45 1013.9
20260509173658 21 76 4.8 17.7 0.00 0.00 0.00 44 1013.9
20260509173158 21 72 4.8 12.9 0.00 0.00 0.00 45 1013.9
20260509172658 21 89 4.8 17.7 0.00 0.00 0.00 44 1013.8
20260509172158 21 76 4.8 19.3 0.00 0.00 0.00 43 1013.8
20260509171658 22 67 3.2 11.3 0.00 0.00 0.00 43 1013.8
20260509171158 22 63 1.6 8.0 0.00 0.00 0.00 43 1013.7
20260509170658 21 63 1.6 11.3 0.00 0.00 0.00 43 1013.7
20260509170158 22 70 1.6 12.9 0.00 0.00 0.00 43 1013.7
20260509165658 22 69 3.2 8.0 0.00 0.00 0.00 42 1013.7
20260509165158 22 70 3.2 9.7 0.00 0.00 0.00 40 1013.7
20260509164658 22 66 4.8 9.7 0.00 0.00 0.00 40 1013.7
20260509164158 22 65 4.8 11.3 0.00 0.00 0.00 39 1013.8
20260509163658 22 61 3.2 12.9 0.00 0.00 0.00 38 1013.8
20260509163158 22 58 3.2 11.3 0.00 0.00 0.00 38 1013.9
20260509162658 23 60 1.6 12.9 0.00 0.00 0.00 38 1013.9
20260509162158 23 60 1.6 6.4 0.00 0.00 0.00 38 1013.9
20260509161658 23 60 1.6 6.4 0.00 0.00 0.00 37 1013.8
20260509161158 23 56 1.6 4.8 0.00 0.00 0.00 37 1013.9
20260509160658 23 56 1.6 8.0 0.00 0.00 0.00 36 1013.9
20260509160158 22 56 1.6 6.4 0.00 0.00 0.00 37 1014.0
20260509155658 22 56 1.6 9.7 0.00 0.00 0.00 37 1014.0
20260509155158 22 55 1.6 6.4 0.00 0.00 0.00 38 1014.0
20260509154658 22 55 1.6 9.7 0.00 0.00 0.00 39 1014.0
20260509154202 22 41 1.6 9.7 0.00 0.00 0.00 40 1014.0
20260509153658 22 18 1.6 11.3 0.00 0.00 0.00 40 1014.0
20260509153158 22 96 1.6 4.8 0.00 0.00 0.00 41 1014.0
20260509152658 22 96 1.6 9.7 0.00 0.00 0.00 40 1014.0
20260509152158 22 159 1.6 8.0 0.00 0.00 0.00 40 1014.0
20260509151658 21 173 1.6 4.8 0.00 0.00 0.00 39 1014.0
20260509151158 21 178 1.6 9.7 0.00 0.00 0.00 41 1013.9
20260509150658 22 179 1.6 11.3 0.00 0.00 0.00 40 1013.9
20260509150158 22 84 1.6 8.0 0.00 0.00 0.00 40 1014.0
20260509145658 23 67 3.2 9.7 0.00 0.00 0.00 37 1014.0
20260509145158 22 65 3.2 16.1 0.00 0.00 0.00 38 1014.0
20260509144658 22 76 1.6 6.4 0.00 0.00 0.00 39 1014.0
20260509144158 22 75 0.0 8.0 0.00 0.00 0.00 40 1014.1
20260509143658 22 70 1.6 6.4 0.00 0.00 0.00 41 1014.2
20260509143158 22 66 1.6 9.7 0.00 0.00 0.00 41 1014.3
20260509142658 21 58 3.2 8.0 0.00 0.00 0.00 41 1014.3
20260509142158 22 60 1.6 8.0 0.00 0.00 0.00 39 1014.3
20260509141658 22 68 1.6 6.4 0.00 0.00 0.00 39 1014.4
20260509141158 22 65 3.2 8.0 0.00 0.00 0.00 39 1014.4
20260509140658 22 68 1.6 11.3 0.00 0.00 0.00 40 1014.3
20260509140158 22 94 0.0 3.2 0.00 0.00 0.00 40 1014.4
20260509135658 22 94 1.6 6.4 0.00 0.00 0.00 41 1014.5
20260509135200 22 94 1.6 8.0 0.00 0.00 0.00 39 1014.5
20260509134658 22 72 1.6 8.0 0.00 0.00 0.00 38 1014.5
20260509134158 22 70 1.6 8.0 0.00 0.00 0.00 38 1014.5
20260509133658 22 75 3.2 9.7 0.00 0.00 0.00 40 1014.6
20260509133158 22 73 3.2 14.5 0.00 0.00 0.00 40 1014.6
20260509132658 22 82 1.6 11.3 0.00 0.00 0.00 40 1014.6
20260509132158 22 64 1.6 6.4 0.00 0.00 0.00 40 1014.6
20260509131658 23 63 3.2 11.3 0.00 0.00 0.00 39 1014.7
20260509131158 23 66 1.6 14.5 0.00 0.00 0.00 39 1014.7
20260509130658 23 82 3.2 6.4 0.00 0.00 0.00 39 1014.7
20260509130158 23 70 3.2 19.3 0.00 0.00 0.00 40 1014.8
20260509125658 23 86 1.6 8.0 0.00 0.00 0.00 42 1014.8
20260509125158 22 110 1.6 11.3 0.00 0.00 0.00 42 1014.9
20260509124658 22 121 1.6 11.3 0.00 0.00 0.00 41 1015.0
20260509124158 22 99 3.2 8.0 0.00 0.00 0.00 42 1015.1
20260509123658 22 66 3.2 14.5 0.00 0.00 0.00 41 1015.2
20260509123158 22 175 3.2 12.9 0.00 0.00 0.00 41 1015.2
20260509122658 22 47 3.2 16.1 0.00 0.00 0.00 41 1015.3
20260509122158 22 82 1.6 12.9 0.00 0.00 0.00 42 1015.3
20260509121658 22 44 3.2 12.9 0.00 0.00 0.00 43 1015.3
20260509121158 22 174 3.2 12.9 0.00 0.00 0.00 43 1015.3
20260509120658 22 65 3.2 11.3 0.00 0.00 0.00 42 1015.3
20260509120158 22 76 3.2 11.3 0.00 0.00 0.00 42 1015.5
20260509115658 22 64 3.2 11.3 0.00 0.00 0.00 43 1015.5
20260509115158 22 74 3.2 16.1 0.00 0.00 0.00 43 1015.5
20260509114658 22 76 4.8 12.9 0.00 0.00 0.00 44 1015.5
20260509114158 22 69 3.2 11.3 0.00 0.00 0.00 43 1015.6
20260509113658 21 71 1.6 8.0 0.00 0.00 0.00 45 1015.7
20260509113158 21 69 3.2 6.4 0.00 0.00 0.00 45 1015.8
20260509112658 21 60 4.8 11.3 0.00 0.00 0.00 43 1015.9
20260509112158 21 52 3.2 12.9 0.00 0.00 0.00 42 1015.9
20260509111658 22 66 3.2 11.3 0.00 0.00 0.00 44 1015.9
20260509111158 22 123 3.2 12.9 0.00 0.00 0.00 43 1016.0
20260509110658 22 13 1.6 12.9 0.00 0.00 0.00 44 1016.0
20260509110158 22 135 1.6 8.0 0.00 0.00 0.00 44 1016.1
20260509105658 22 137 1.6 9.7 0.00 0.00 0.00 44 1016.1
20260509105158 21 115 1.6 6.4 0.00 0.00 0.00 43 1016.1
20260509104658 21 119 1.6 8.0 0.00 0.00 0.00 44 1016.2
20260509104158 21 89 1.6 8.0 0.00 0.00 0.00 44 1016.1
20260509103658 21 51 3.2 12.9 0.00 0.00 0.00 44 1016.1
20260509103158 21 76 3.2 11.3 0.00 0.00 0.00 44 1016.1
20260509102658 21 65 3.2 9.7 0.00 0.00 0.00 44 1016.3
20260509102158 21 157 3.2 12.9 0.00 0.00 0.00 45 1016.3
20260509101658 21 133 3.2 11.3 0.00 0.00 0.00 45 1016.3
20260509101158 21 76 3.2 12.9 0.00 0.00 0.00 46 1016.3
20260509100658 21 89 3.2 11.3 0.00 0.00 0.00 47 1016.3
20260509100158 21 56 3.2 12.9 0.00 0.00 0.00 45 1016.3
20260509095658 21 67 1.6 11.3 0.00 0.00 0.00 47 1016.4
20260509095158 20 140 1.6 9.7 0.00 0.00 0.00 47 1016.4
20260509094658 20 144 3.2 11.3 0.00 0.00 0.00 47 1016.4
20260509094158 20 139 3.2 8.0 0.00 0.00 0.00 47 1016.4
20260509093658 20 176 3.2 11.3 0.00 0.00 0.00 47 1016.4
20260509093158 20 157 1.6 12.9 0.00 0.00 0.00 46 1016.4
20260509092658 20 122 1.6 6.4 0.00 0.00 0.00 47 1016.4
20260509092158 20 118 1.6 9.7 0.00 0.00 0.00 47 1016.5
20260509091658 20 105 1.6 8.0 0.00 0.00 0.00 47 1016.5
20260509091158 20 94 1.6 12.9 0.00 0.00 0.00 47 1016.5
20260509090658 20 154 1.6 8.0 0.00 0.00 0.00 48 1016.6
20260509090158 20 147 1.6 6.4 0.00 0.00 0.00 49 1016.5
20260509085658 19 150 3.2 8.0 0.00 0.00 0.00 49 1016.5
20260509085158 19 149 3.2 11.3 0.00 0.00 0.00 48 1016.6
20260509084658 20 22 1.6 11.3 0.00 0.00 0.00 49 1016.6
20260509084158 20 27 3.2 11.3 0.00 0.00 0.00 48 1016.5
20260509083658 20 160 1.6 11.3 0.00 0.00 0.00 50 1016.5
20260509083158 19 107 1.6 9.7 0.00 0.00 0.00 51 1016.5
20260509082658 19 79 3.2 12.9 0.00 0.00 0.00 54 1016.5
20260509082158 19 153 3.2 8.0 0.00 0.00 0.00 52 1016.5
20260509081658 18 154 3.2 9.7 0.00 0.00 0.00 51 1016.5
20260509081158 18 148 1.6 3.2 0.00 0.00 0.00 55 1016.6
20260509080658 18 148 3.2 9.7 0.00 0.00 0.00 54 1016.6
20260509080158 18 146 3.2 8.0 0.00 0.00 0.00 55 1016.6
20260509075658 18 146 1.6 6.4 0.00 0.00 0.00 55 1016.7
20260509075158 17 146 1.6 9.7 0.00 0.00 0.00 56 1016.7
20260509074658 17 143 1.6 9.7 0.00 0.00 0.00 56 1016.7
20260509074158 17 141 1.6 6.4 0.00 0.00 0.00 56 1016.8
20260509073658 17 141 1.6 8.0 0.00 0.00 0.00 58 1016.8
20260509073158 17 141 1.6 6.4 0.00 0.00 0.00 59 1016.9
20260509072658 17 141 0.0 4.8 0.00 0.00 0.00 58 1016.8
20260509072158 17 140 0.0 0.0 0.00 0.00 0.00 59 1016.8
20260509071658 17 140 1.6 8.0 0.00 0.00 0.00 58 1016.8
20260509071158 16 142 0.0 3.2 0.00 0.00 0.00 60 1016.8
20260509070658 16 142 0.0 3.2 0.00 0.00 0.00 61 1016.8
20260509070158 16 142 0.0 4.8 0.00 0.00 0.00 62 1016.8
20260509065658 16 142 0.0 3.2 0.00 0.00 0.00 62 1016.8
20260509065158 15 142 1.6 6.4 0.00 0.00 0.00 63 1016.7
20260509064658 15 142 1.6 6.4 0.00 0.00 0.00 62 1016.8